Volver al catálogo

STARLINK-32295

ActivoComunicacionesVLEO
NORAD 62147·PAYLOAD·🇺🇸 United States

Lanzado Nov 30, 2024 desde Cape Canaveral Space Force Station

Loading…

Próximos Pases (próximas 24 horas)

TLE

ActualizadoSource: CelesTrak SupGP

Época: Sep 14, 2026, 22:27 UTC

1 62147C 24224J   26257.93590278 -.00049639  00000+0 -17980-2 0  2575
2 62147  43.0007 169.5931 0001320 266.4476 317.4455 15.27602500    19

Sigue STARLINK-32295 en tiempo real con AllMySat

Download on the App Store